Fort George G Meade, MD

10:06 PM EST on December 10, 2016 (GMT -0500)
Tipton

Weather History for KFME - May, 2013

Change the Weather History Date:

Sunday, May 26, 2013

  Actual Average (KBWI) Record (KBWI)
Temperature  
Mean Temperature 56 °F -  
Max Temperature 69 °F 74 °F 94 °F (1914)
Min Temperature 42 °F 55 °F 41 °F (1967)
Degree Days  
Heating Degree Days 10    
Growing Degree Days 6 (Base 50)    
Moisture  
Dew Point 37 °F    
Average Humidity 53    
Maximum Humidity 93    
Minimum Humidity 26    
Precipitation  
Precipitation 0.00 in - - ()
Sea Level Pressure  
Sea Level Pressure 30.19 in    
Wind  
Wind Speed 5 mph (WNW)    
Max Wind Speed 16 mph    
Max Gust Speed 21 mph    
Visibility 10 miles    
Events      
Averages and records for this station are not official NWS values.
T = Trace of Precipitation, MM = Missing Value Source: NWS Daily Summary

Daily Weather History Graph

Daily Weather History Graph

Search for Another Location

Airport or City:

Trip Planner

Search our weather history database for the weather conditions in past years. The results will help you decide how hot, cold, wet, or windy it might be!

Date:

Astronomy

May. 26, 2013 Rise Set
Actual Time 5:45 AM EDT 8:22 PM EDT
Civil Twilight 5:14 AM EDT 8:53 PM EDT
Nautical Twilight 4:36 AM EDT 9:32 PM EDT
Astronomical Twilight 3:52 AM EDT 10:16 PM EDT
Moon 10:08 PM EDT (5/26) 7:12 AM EDT (5/26)
Length of Visible Light 15h 39m
Length of Day
14h 37m
Waning Gibbous, 97% of the Moon is Illuminated
May 26
Waning Gibbous
May 31
Last Quarter
Jun 8
New
Jun 16
First Quarter
Jun 23
Full

Hourly Weather History & Observations

Time (EDT) Temp. Windchill Dew Point Humidity Pressure Visibility Wind Dir Wind Speed Gust Speed Precip Events Conditions
12:09 AM 50.0 °F - 35.6 °F 58% 30.17 in 10.0 mi West 3.5 mph - N/A   Clear
12:27 AM 48.2 °F - 35.6 °F 62% 30.17 in 10.0 mi West 4.6 mph - N/A   Clear
12:48 AM 46.4 °F 45.2 °F 35.6 °F 66% 30.18 in 10.0 mi WNW 3.5 mph - N/A   Clear
1:09 AM 46.4 °F 45.2 °F 37.4 °F 71% 30.18 in 10.0 mi West 3.5 mph - N/A   Clear
1:27 AM 46.4 °F 44.3 °F 35.6 °F 66% 30.18 in 10.0 mi WNW 4.6 mph - N/A   Clear
1:48 AM 46.4 °F - 35.6 °F 66% 30.18 in 10.0 mi Calm Calm - N/A   Clear
2:09 AM 44.6 °F - 37.4 °F 76% 30.17 in 10.0 mi Calm Calm - N/A   Clear
2:27 AM 44.6 °F - 37.4 °F 76% 30.18 in 10.0 mi Calm Calm - N/A   Clear
2:48 AM 42.8 °F - 37.4 °F 81% 30.18 in 10.0 mi Calm Calm - N/A   Clear
3:09 AM 42.8 °F 40.1 °F 35.6 °F 76% 30.17 in 10.0 mi WNW 4.6 mph - N/A   Clear
3:27 AM 44.6 °F 42.2 °F 35.6 °F 71% 30.17 in 10.0 mi WNW 4.6 mph - N/A   Clear
3:48 AM 44.6 °F 43.1 °F 35.6 °F 71% 30.17 in 10.0 mi WNW 3.5 mph - N/A   Clear
4:09 AM 44.6 °F 41.4 °F 35.6 °F 71% 30.17 in 10.0 mi WNW 5.8 mph - N/A   Clear
4:27 AM 46.4 °F 43.5 °F 35.6 °F 66% 30.17 in 10.0 mi WNW 5.8 mph - N/A   Clear
4:48 AM 46.4 °F 44.3 °F 35.6 °F 66% 30.18 in 10.0 mi West 4.6 mph - N/A   Clear
5:09 AM 44.6 °F 41.4 °F 35.6 °F 71% 30.18 in 10.0 mi West 5.8 mph - N/A   Clear
5:27 AM 44.6 °F 41.4 °F 35.6 °F 71% 30.19 in 10.0 mi West 5.8 mph - N/A   Clear
5:48 AM 44.6 °F - 35.6 °F 71% 30.19 in 10.0 mi Calm Calm - N/A   Clear
6:09 AM 42.8 °F - 37.4 °F 81% 30.20 in 10.0 mi Calm Calm - N/A   Clear
6:27 AM 42.8 °F - 37.4 °F 81% 30.20 in 10.0 mi Calm Calm - N/A   Clear
6:48 AM 44.6 °F - 37.4 °F 76% 30.21 in 10.0 mi Calm Calm - N/A   Clear
7:09 AM 50.0 °F - 37.4 °F 62% 30.21 in 10.0 mi NW 5.8 mph - N/A   Clear
7:27 AM 51.8 °F - 37.4 °F 58% 30.21 in 10.0 mi NW 4.6 mph - N/A   Clear
7:48 AM 53.6 °F - 35.6 °F 51% 30.21 in 10.0 mi NW 8.1 mph - N/A   Clear
8:09 AM 55.4 °F - 35.6 °F 47% 30.22 in 10.0 mi WNW 4.6 mph 17.3 mph N/A   Clear
8:30 AM 55.4 °F - 37.4 °F 51% 30.22 in 10.0 mi NW 9.2 mph - N/A   Clear
8:48 AM 57.2 °F - 35.6 °F 44% 30.22 in 10.0 mi WNW 8.1 mph - N/A   Clear
9:09 AM 59.0 °F - 35.6 °F 42% 30.22 in 10.0 mi WNW 10.4 mph - N/A   Clear
9:30 AM 59.0 °F - 37.4 °F 45% 30.22 in 10.0 mi NNW 9.2 mph - N/A   Clear
9:48 AM 60.8 °F - 37.4 °F 42% 30.22 in 10.0 mi WNW 8.1 mph - N/A   Clear
10:09 AM 60.8 °F - 37.4 °F 42% 30.21 in 10.0 mi West 10.4 mph - N/A   Clear
10:30 AM 62.6 °F - 37.4 °F 39% 30.22 in 10.0 mi WNW 10.4 mph - N/A   Clear
10:48 AM 62.6 °F - 35.6 °F 37% 30.21 in 10.0 mi WNW 13.8 mph 17.3 mph N/A   Clear
11:09 AM 62.6 °F - 33.8 °F 34% 30.21 in 10.0 mi West 13.8 mph 17.3 mph N/A   Clear
11:30 AM 62.6 °F - 33.8 °F 34% 30.21 in 10.0 mi NNW 10.4 mph 17.3 mph N/A   Clear
11:48 AM 64.4 °F - 35.6 °F 34% 30.20 in 10.0 mi WNW 10.4 mph 17.3 mph N/A   Clear
12:09 PM 64.4 °F - 35.6 °F 34% 30.20 in 10.0 mi WNW 11.5 mph 16.1 mph N/A   Clear
12:30 PM 64.4 °F - 35.6 °F 34% 30.20 in 10.0 mi WNW 8.1 mph 20.7 mph N/A   Clear
12:48 PM 64.4 °F - 37.4 °F 37% 30.20 in 10.0 mi West 16.1 mph 20.7 mph N/A   Clear
1:09 PM 66.2 °F - 39.2 °F 37% 30.19 in 10.0 mi West 12.7 mph 20.7 mph N/A   Clear
1:30 PM 66.2 °F - 37.4 °F 35% 30.18 in 10.0 mi WNW 10.4 mph 20.7 mph N/A   Clear
1:48 PM 68.0 °F - 37.4 °F 33% 30.17 in 10.0 mi WNW 12.7 mph 20.7 mph N/A   Clear
2:09 PM 68.0 °F - 37.4 °F 33% 30.17 in 10.0 mi West 11.5 mph 20.7 mph N/A   Clear
2:30 PM 68.0 °F - 37.4 °F 33% 30.16 in 10.0 mi WNW 12.7 mph 19.6 mph N/A   Clear
2:48 PM 68.0 °F - 35.6 °F 30% 30.16 in 10.0 mi West 15.0 mph 19.6 mph N/A   Clear
3:09 PM 68.0 °F - 33.8 °F 28% 30.16 in 10.0 mi WNW 13.8 mph 20.7 mph N/A   Clear
3:30 PM 69.8 °F - 33.8 °F 27% 30.16 in 10.0 mi West 15.0 mph 18.4 mph N/A   Clear
3:48 PM 69.8 °F - 35.6 °F 28% 30.15 in 10.0 mi West 10.4 mph 18.4 mph N/A   Clear
4:09 PM 69.8 °F - 35.6 °F 28% 30.15 in 10.0 mi WNW 11.5 mph 20.7 mph N/A   Clear
4:30 PM 69.8 °F - 35.6 °F 28% 30.15 in 10.0 mi NNW 8.1 mph 17.3 mph N/A   Clear
4:48 PM 69.8 °F - 35.6 °F 28% 30.15 in 10.0 mi West 9.2 mph 16.1 mph N/A   Clear
5:09 PM 69.8 °F - 33.8 °F 27% 30.14 in 10.0 mi NW 6.9 mph - N/A   Clear
5:30 PM 69.8 °F - 33.8 °F 27% 30.14 in 10.0 mi NNW 5.8 mph 17.3 mph N/A   Clear
5:51 PM 68.0 °F - 32.0 °F 26% 30.14 in 10.0 mi NW 4.6 mph 17.3 mph N/A   Clear
6:09 PM 68.0 °F - 33.8 °F 28% 30.15 in 10.0 mi WNW 6.9 mph - N/A   Clear
6:30 PM 68.0 °F - 33.8 °F 28% 30.15 in 10.0 mi NW 6.9 mph - N/A   Clear
6:51 PM 68.0 °F - 33.8 °F 28% 30.15 in 10.0 mi NW 5.8 mph - N/A   Clear
7:09 PM 66.2 °F - 33.8 °F 30% 30.16 in 10.0 mi NW 8.1 mph 17.3 mph N/A   Clear
7:30 PM 64.4 °F - 35.6 °F 34% 30.16 in 10.0 mi NW 4.6 mph - N/A   Clear
7:51 PM 62.6 °F - 37.4 °F 39% 30.17 in 10.0 mi NW 3.5 mph - N/A   Clear
8:09 PM 60.8 °F - 41.0 °F 48% 30.17 in 10.0 mi Calm Calm - N/A   Clear
8:30 PM 57.2 °F - 42.8 °F 59% 30.18 in 10.0 mi Calm Calm - N/A   Clear
8:51 PM 55.4 °F - 42.8 °F 63% 30.19 in 10.0 mi Calm Calm - N/A   Clear
9:09 PM 53.6 °F - 42.8 °F 67% 30.19 in 10.0 mi Calm Calm - N/A   Clear
9:30 PM 51.8 °F - 44.6 °F 76% 30.20 in 10.0 mi Calm Calm - N/A   Clear
9:51 PM 50.0 °F - 44.6 °F 82% 30.21 in 10.0 mi Calm Calm - N/A   Clear
10:09 PM 50.0 °F - 44.6 °F 82% 30.21 in 10.0 mi Calm Calm - N/A   Clear
10:30 PM 48.2 °F - 44.6 °F 87% 30.22 in 10.0 mi Calm Calm - N/A   Clear
10:51 PM 46.4 °F - 44.6 °F 93% 30.23 in 10.0 mi Calm Calm - N/A   Clear
11:09 PM 46.4 °F - 42.8 °F 87% 30.23 in 10.0 mi Calm Calm - N/A   Clear
11:30 PM 46.4 °F - 42.8 °F 87% 30.23 in 10.0 mi Calm Calm - N/A   Clear
11:51 PM 46.4 °F - 42.8 °F 87% 30.24 in 10.0 mi Calm Calm - N/A   Clear